Find Starlink 32895

NORAD ID: 63081 Int'l Des: 2025-037 Owner: SPXS Country: US Constellation: starlink operational
LEOCIRCULAR

現在のビュー

3D地球を読み込み中...

About Starlink 32895

Starlink 32895 (NORAD 63081) is a starlink constellation satellite (v2 mini) launched Feb 23, 2025 by SPXS of US. It operates in LEO, CIRCULAR orbit with a mass of 730.00 kg.

Starlink 32895について

説明を読み込み中...

次回通過

Passes for default location (London). Set your location on the main map for personalized predictions.

高度履歴

Loading altitude history...

軌道要素

1 63081U 25037E 26177.74634278 .00037717 00000-0 31576-2 0 9998
2 63081 69.9969 79.6436 0002600 274.3424 85.7438 14.98259818 74794
Epoch: Jun 26, 2026 • Age: 9 hours

現在のステータス

高度 574.8 km
速度 7.57 km/s
衛星直下点 -0.80°S, 57.14°W
打ち上げ日 Feb 23, 2025
運用期間 1.3 years
タイプ internet

技術仕様

分類 Payload
質量 730.00 kg
乾燥質量 700.00 kg
総質量 730.00 kg
長さ 0.30 m
直径 4.10 m
スパン 29.00 m
形状 Box + pan
製造者 SPXS
バスタイプ Starlink V2M
フェーズステータス In Orbit
所有者/国 SPXS/US

Most Searched